Time,TemperatureF,DewpointF,PressureIn,WindDirection,WindDirectionDegrees,WindSpeedMPH,WindSpeedGustMPH,Humidity,HourlyPrecipIn,Conditions,Clouds,dailyrainin,SoftwareType,DateUTC
2013-08-19 00:01:00,60.2,57.7,30.13,SSE,157,0.0,-999.0,91,-99.99,,,-99.99,MetarLogicWeatherSta,2013-08-19 04:01:00,
2013-08-19 00:06:00,60.2,57.7,30.13,SSE,157,0.0,-999.0,91,-99.99,,,-99.99,MetarLogicWeatherSta,2013-08-19 04:06:00,
2013-08-19 00:11:00,59.9,57.6,30.13,SSE,157,0.0,-999.0,91,-99.99,,,-99.99,MetarLogicWeatherSta,2013-08-19 04:11:00,
2013-08-19 00:16:00,59.8,57.4,30.13,SSE,157,0.0,-999.0,91,-99.99,,,-99.99,MetarLogicWeatherSta,2013-08-19 04:16:00,
2013-08-19 00:21:00,59.7,57.5,30.13,SSE,157,0.0,-999.0,92,-99.99,,,-99.99,MetarLogicWeatherSta,2013-08-19 04:21:00,
2013-08-19 00:26:00,59.6,57.4,30.13,SSE,157,0.0,-999.0,92,-99.99,,,-99.99,MetarLogicWeatherSta,2013-08-19 04:26:00,
2013-08-19 00:31:00,59.6,57.3,30.13,SSE,157,0.0,-999.0,92,-99.99,,,-99.99,MetarLogicWeatherSta,2013-08-19 04:31:00,
2013-08-19 00:36:00,59.4,57.3,30.13,SSE,157,0.0,-999.0,92,-99.99,,,-99.99,MetarLogicWeatherSta,2013-08-19 04:36:00,
2013-08-19 00:41:00,59.6,57.5,30.13,SSE,157,0.0,-999.0,92,-99.99,,,-99.99,MetarLogicWeatherSta,2013-08-19 04:41:00,
2013-08-19 00:46:00,59.3,57.3,30.13,SSE,157,0.0,-999.0,92,-99.99,,,-99.99,MetarLogicWeatherSta,2013-08-19 04:46:00,
2013-08-19 00:51:00,59.4,57.4,30.13,SSE,157,0.0,-999.0,92,-99.99,,,-99.99,MetarLogicWeatherSta,2013-08-19 04:51:00,
2013-08-19 00:56:00,59.4,57.4,30.13,SSE,157,0.0,-999.0,93,-99.99,,,-99.99,MetarLogicWeatherSta,2013-08-19 04:56:00,
2013-08-19 01:01:00,59.3,57.3,30.13,SE,135,0.0,-999.0,93,-99.99,,,-99.99,MetarLogicWeatherSta,2013-08-19 05:01:00,
2013-08-19 01:06:00,59.3,57.3,30.13,SSE,157,0.0,-999.0,92,-99.99,,,-99.99,MetarLogicWeatherSta,2013-08-19 05:06:00,
2013-08-19 01:11:00,59.3,57.5,30.13,SSE,157,0.0,-999.0,93,-99.99,,,-99.99,MetarLogicWeatherSta,2013-08-19 05:11:00,
2013-08-19 01:16:00,59.2,57.4,30.13,SSE,157,0.0,-999.0,93,-99.99,,,-99.99,MetarLogicWeatherSta,2013-08-19 05:16:00,
2013-08-19 01:21:00,59.3,57.4,30.13,SSE,157,0.0,-999.0,93,-99.99,,,-99.99,MetarLogicWeatherSta,2013-08-19 05:21:00,
2013-08-19 01:26:00,59.2,57.2,30.13,SSE,157,0.0,-999.0,92,-99.99,,,-99.99,MetarLogicWeatherSta,2013-08-19 05:26:00,
2013-08-19 01:31:00,59.1,57.2,30.13,SSE,157,0.0,-999.0,93,-99.99,,,-99.99,MetarLogicWeatherSta,2013-08-19 05:31:00,
2013-08-19 01:36:00,59.1,57.3,30.13,SSE,157,0.0,-999.0,93,-99.99,,,-99.99,MetarLogicWeatherSta,2013-08-19 05:36:00,
2013-08-19 01:41:00,58.9,57.2,30.13,SSE,157,0.0,-999.0,94,-99.99,,,-99.99,MetarLogicWeatherSta,2013-08-19 05:41:00,
2013-08-19 01:46:00,59.1,57.3,30.13,SSE,157,0.0,-999.0,93,-99.99,,,-99.99,MetarLogicWeatherSta,2013-08-19 05:46:00,
2013-08-19 01:51:00,59.0,57.3,30.13,SSE,157,0.0,-999.0,93,-99.99,,,-99.99,MetarLogicWeatherSta,2013-08-19 05:51:00,
2013-08-19 01:56:00,58.8,56.9,30.13,SSE,157,0.0,-999.0,93,-99.99,,,-99.99,MetarLogicWeatherSta,2013-08-19 05:56:00,
2013-08-19 02:01:00,58.8,57.0,30.13,SSE,157,0.0,-999.0,93,-99.99,,,-99.99,MetarLogicWeatherSta,2013-08-19 06:01:00,
2013-08-19 02:06:00,58.8,57.0,30.13,SSE,157,0.0,-999.0,93,-99.99,,,-99.99,MetarLogicWeatherSta,2013-08-19 06:06:00,
2013-08-19 02:11:00,58.7,56.9,30.13,SSE,157,0.0,-999.0,93,-99.99,,,-99.99,MetarLogicWeatherSta,2013-08-19 06:11:00,
2013-08-19 02:16:00,58.8,57.0,30.13,SSE,157,0.0,-999.0,93,-99.99,,,-99.99,MetarLogicWeatherSta,2013-08-19 06:16:00,
2013-08-19 02:21:00,58.7,56.9,30.12,SSE,157,0.0,-999.0,93,-99.99,,,-99.99,MetarLogicWeatherSta,2013-08-19 06:21:00,
2013-08-19 02:26:00,58.5,56.7,30.12,SSE,157,0.0,-999.0,93,-99.99,,,-99.99,MetarLogicWeatherSta,2013-08-19 06:26:00,
2013-08-19 02:31:00,58.5,56.7,30.12,SSE,157,0.0,-999.0,93,-99.99,,,-99.99,MetarLogicWeatherSta,2013-08-19 06:31:00,
2013-08-19 02:36:00,58.5,56.6,30.12,SSE,157,0.0,-999.0,93,-99.99,,,-99.99,MetarLogicWeatherSta,2013-08-19 06:36:00,
2013-08-19 02:41:00,58.5,56.8,30.12,SSE,157,0.0,-999.0,93,-99.99,,,-99.99,MetarLogicWeatherSta,2013-08-19 06:41:00,
2013-08-19 02:46:00,58.4,56.6,30.12,SSE,157,0.0,-999.0,93,-99.99,,,-99.99,MetarLogicWeatherSta,2013-08-19 06:46:00,
2013-08-19 02:51:00,58.4,56.6,30.12,SSE,157,0.0,-999.0,93,-99.99,,,-99.99,MetarLogicWeatherSta,2013-08-19 06:51:00,
2013-08-19 02:56:00,58.4,56.6,30.12,SSE,157,0.0,-999.0,93,-99.99,,,-99.99,MetarLogicWeatherSta,2013-08-19 06:56:00,
2013-08-19 03:01:00,58.2,56.4,30.12,SSE,157,0.0,-999.0,93,-99.99,,,-99.99,MetarLogicWeatherSta,2013-08-19 07:01:00,
2013-08-19 03:06:00,58.2,56.4,30.12,SSE,157,0.0,-999.0,93,-99.99,,,-99.99,MetarLogicWeatherSta,2013-08-19 07:06:00,
2013-08-19 03:11:00,58.0,56.2,30.11,SSE,157,0.0,-999.0,93,-99.99,,,-99.99,MetarLogicWeatherSta,2013-08-19 07:11:00,
2013-08-19 03:16:00,57.9,55.9,30.11,SSE,157,0.0,-999.0,92,-99.99,,,-99.99,MetarLogicWeatherSta,2013-08-19 07:16:00,
2013-08-19 03:21:00,57.8,56.1,30.12,SSE,157,0.0,-999.0,93,-99.99,,,-99.99,MetarLogicWeatherSta,2013-08-19 07:21:00,
2013-08-19 03:26:00,57.5,55.9,30.11,SSE,157,0.0,-999.0,94,-99.99,,,-99.99,MetarLogicWeatherSta,2013-08-19 07:26:00,
2013-08-19 03:31:00,57.6,55.8,30.11,SSE,157,0.0,-999.0,93,-99.99,,,-99.99,MetarLogicWeatherSta,2013-08-19 07:31:00,
2013-08-19 03:36:00,57.5,55.8,30.11,SSE,157,0.0,-999.0,93,-99.99,,,-99.99,MetarLogicWeatherSta,2013-08-19 07:36:00,
2013-08-19 03:41:00,57.2,55.5,30.11,SSE,157,0.0,-999.0,93,-99.99,,,-99.99,MetarLogicWeatherSta,2013-08-19 07:41:00,
2013-08-19 03:46:00,57.1,55.5,30.11,SSE,157,0.0,-999.0,94,-99.99,,,-99.99,MetarLogicWeatherSta,2013-08-19 07:46:00,
2013-08-19 03:51:00,57.1,55.7,30.11,SSE,157,0.0,-999.0,94,-99.99,,,-99.99,MetarLogicWeatherSta,2013-08-19 07:51:00,
2013-08-19 03:56:00,57.0,55.3,30.11,SSE,157,0.0,-999.0,94,-99.99,,,-99.99,MetarLogicWeatherSta,2013-08-19 07:56:00,
2013-08-19 04:01:00,56.8,55.3,30.11,SSE,157,0.0,-999.0,94,-99.99,,,-99.99,MetarLogicWeatherSta,2013-08-19 08:01:00,
2013-08-19 04:06:00,56.8,55.2,30.11,SSE,157,0.0,-999.0,94,-99.99,,,-99.99,MetarLogicWeatherSta,2013-08-19 08:06:00,
2013-08-19 04:11:00,56.4,54.7,30.11,SSE,157,0.0,-999.0,94,-99.99,,,-99.99,MetarLogicWeatherSta,2013-08-19 08:11:00,
2013-08-19 04:16:00,56.4,54.9,30.11,SSE,157,0.0,-999.0,94,-99.99,,,-99.99,MetarLogicWeatherSta,2013-08-19 08:16:00,
2013-08-19 04:21:00,56.4,54.9,30.11,SSE,157,0.0,-999.0,94,-99.99,,,-99.99,MetarLogicWeatherSta,2013-08-19 08:21:00,
2013-08-19 04:26:00,56.2,54.8,30.11,SSE,157,0.0,-999.0,94,-99.99,,,-99.99,MetarLogicWeatherSta,2013-08-19 08:26:00,
2013-08-19 04:31:00,56.1,54.5,30.11,South,180,0.0,-999.0,94,-99.99,,,-99.99,MetarLogicWeatherSta,2013-08-19 08:31:00,
2013-08-19 04:36:00,56.2,54.5,30.12,SSE,157,0.0,-999.0,94,-99.99,,,-99.99,MetarLogicWeatherSta,2013-08-19 08:36:00,
2013-08-19 04:41:00,56.1,54.7,30.12,SSE,157,0.0,-999.0,94,-99.99,,,-99.99,MetarLogicWeatherSta,2013-08-19 08:41:00,
2013-08-19 04:46:00,56.3,54.9,30.13,SSE,157,0.0,-999.0,95,-99.99,,,-99.99,MetarLogicWeatherSta,2013-08-19 08:46:00,
2013-08-19 04:51:00,56.2,54.8,30.12,SSE,157,0.0,-999.0,94,-99.99,,,-99.99,MetarLogicWeatherSta,2013-08-19 08:51:00,
2013-08-19 04:56:00,56.0,54.6,30.12,SSE,157,0.0,-999.0,95,-99.99,,,-99.99,MetarLogicWeatherSta,2013-08-19 08:56:00,
2013-08-19 05:01:00,55.9,54.4,30.12,SSE,157,0.0,-999.0,94,-99.99,,,-99.99,MetarLogicWeatherSta,2013-08-19 09:01:00,
2013-08-19 05:06:00,55.8,54.5,30.13,SSE,157,0.0,-999.0,95,-99.99,,,-99.99,MetarLogicWeatherSta,2013-08-19 09:06:00,
2013-08-19 05:11:00,55.7,54.3,30.13,SSE,157,0.0,-999.0,95,-99.99,,,-99.99,MetarLogicWeatherSta,2013-08-19 09:11:00,
2013-08-19 05:16:00,55.7,54.5,30.13,SSE,157,0.0,-999.0,95,-99.99,,,-99.99,MetarLogicWeatherSta,2013-08-19 09:16:00,
2013-08-19 05:21:00,55.6,54.4,30.13,SE,135,0.0,-999.0,95,-99.99,,,-99.99,MetarLogicWeatherSta,2013-08-19 09:21:00,
2013-08-19 05:26:00,55.6,54.4,30.13,SE,135,0.0,-999.0,95,-99.99,,,-99.99,MetarLogicWeatherSta,2013-08-19 09:26:00,
2013-08-19 05:31:00,55.6,54.6,30.13,SSE,157,0.0,-999.0,96,-99.99,,,-99.99,MetarLogicWeatherSta,2013-08-19 09:31:00,
2013-08-19 05:36:00,55.7,54.6,30.13,SSE,157,0.0,-999.0,95,-99.99,,,-99.99,MetarLogicWeatherSta,2013-08-19 09:36:00,
2013-08-19 05:41:00,55.5,54.3,30.13,SSE,157,0.0,-999.0,95,-99.99,,,-99.99,MetarLogicWeatherSta,2013-08-19 09:41:00,
2013-08-19 05:46:00,55.5,54.3,30.13,SSE,157,0.0,-999.0,95,-99.99,,,-99.99,MetarLogicWeatherSta,2013-08-19 09:46:00,
2013-08-19 05:51:00,55.5,54.5,30.12,SSE,157,0.0,-999.0,96,-99.99,,,-99.99,MetarLogicWeatherSta,2013-08-19 09:51:00,
2013-08-19 05:56:00,55.2,54.2,30.13,SSE,157,0.0,-999.0,96,-99.99,,,-99.99,MetarLogicWeatherSta,2013-08-19 09:56:00,
2013-08-19 06:01:00,55.3,54.1,30.13,South,180,0.0,-999.0,95,-99.99,,,-99.99,MetarLogicWeatherSta,2013-08-19 10:01:00,
2013-08-19 06:06:00,55.1,54.0,30.13,South,180,0.0,-999.0,96,-99.99,,,-99.99,MetarLogicWeatherSta,2013-08-19 10:06:00,
2013-08-19 06:11:00,55.5,54.3,30.13,South,180,0.0,-999.0,95,-99.99,,,-99.99,MetarLogicWeatherSta,2013-08-19 10:11:00,
2013-08-19 06:16:00,55.3,54.3,30.13,SSE,157,0.0,-999.0,96,-99.99,,,-99.99,MetarLogicWeatherSta,2013-08-19 10:16:00,
2013-08-19 06:21:00,55.4,54.1,30.13,SSE,157,0.0,-999.0,95,-99.99,,,-99.99,MetarLogicWeatherSta,2013-08-19 10:21:00,
2013-08-19 06:26:00,55.2,54.1,30.13,SSE,157,0.0,-999.0,96,-99.99,,,-99.99,MetarLogicWeatherSta,2013-08-19 10:26:00,
2013-08-19 06:31:00,55.3,54.2,30.13,SSE,157,0.0,-999.0,95,-99.99,,,-99.99,MetarLogicWeatherSta,2013-08-19 10:31:00,
2013-08-19 06:36:00,54.9,53.8,30.13,SSE,157,0.0,-999.0,96,-99.99,,,-99.99,MetarLogicWeatherSta,2013-08-19 10:36:00,
2013-08-19 06:41:00,55.0,54.0,30.13,SE,135,0.0,-999.0,96,-99.99,,,-99.99,MetarLogicWeatherSta,2013-08-19 10:41:00,
2013-08-19 06:46:00,55.1,54.2,30.13,SSE,157,0.0,-999.0,96,-99.99,,,-99.99,MetarLogicWeatherSta,2013-08-19 10:46:00,
2013-08-19 06:51:00,55.2,54.3,30.12,SSE,157,0.0,-999.0,96,-99.99,,,-99.99,MetarLogicWeatherSta,2013-08-19 10:51:00,
2013-08-19 06:56:00,55.3,54.2,30.13,South,180,0.0,-999.0,96,-99.99,,,-99.99,MetarLogicWeatherSta,2013-08-19 10:56:00,
2013-08-19 07:01:00,55.2,54.2,30.13,South,180,0.0,-999.0,96,-99.99,,,-99.99,MetarLogicWeatherSta,2013-08-19 11:01:00,
2013-08-19 07:06:00,55.3,54.3,30.13,SSE,157,0.0,-999.0,96,-99.99,,,-99.99,MetarLogicWeatherSta,2013-08-19 11:06:00,
2013-08-19 07:11:00,55.2,54.2,30.13,SSE,157,0.0,-999.0,96,-99.99,,,-99.99,MetarLogicWeatherSta,2013-08-19 11:11:00,
2013-08-19 07:16:00,55.6,54.9,30.13,SE,135,0.0,-999.0,97,-99.99,,,-99.99,MetarLogicWeatherSta,2013-08-19 11:16:00,
2013-08-19 07:21:00,55.8,55.1,30.13,SE,135,0.0,-999.0,97,-99.99,,,-99.99,MetarLogicWeatherSta,2013-08-19 11:21:00,
2013-08-19 07:27:00,56.6,56.2,30.13,SSE,157,0.0,-999.0,98,-99.99,,,-99.99,MetarLogicWeatherSta,2013-08-19 11:27:00,
2013-08-19 07:32:00,57.0,56.4,30.13,SSE,157,0.0,-999.0,97,-99.99,,,-99.99,MetarLogicWeatherSta,2013-08-19 11:32:00,
2013-08-19 07:37:00,57.0,56.6,30.13,SSE,157,0.0,-999.0,98,-99.99,,,-99.99,MetarLogicWeatherSta,2013-08-19 11:37:00,
2013-08-19 07:42:00,58.2,57.7,30.13,South,180,0.0,-999.0,98,-99.99,,,-99.99,MetarLogicWeatherSta,2013-08-19 11:42:00,
2013-08-19 07:47:00,58.4,57.8,30.13,SSE,157,0.0,-999.0,97,-99.99,,,-99.99,MetarLogicWeatherSta,2013-08-19 11:47:00,
2013-08-19 07:52:00,59.3,58.8,30.12,SSE,157,0.0,-999.0,98,-99.99,,,-99.99,MetarLogicWeatherSta,2013-08-19 11:52:00,
2013-08-19 07:57:00,60.0,59.4,30.13,ESE,112,0.0,-999.0,98,-99.99,,,-99.99,MetarLogicWeatherSta,2013-08-19 11:57:00,
2013-08-19 08:02:00,61.0,60.7,30.12,SE,135,0.0,-999.0,99,-99.99,,,-99.99,MetarLogicWeatherSta,2013-08-19 12:02:00,
2013-08-19 08:07:00,62.0,61.5,30.13,SSE,157,0.0,-999.0,98,-99.99,,,-99.99,MetarLogicWeatherSta,2013-08-19 12:07:00,
2013-08-19 08:12:00,63.0,62.3,30.12,SSE,157,0.0,-999.0,97,-99.99,,,-99.99,MetarLogicWeatherSta,2013-08-19 12:12:00,
2013-08-19 08:17:00,63.8,62.9,30.12,South,180,0.0,-999.0,96,-99.99,,,-99.99,MetarLogicWeatherSta,2013-08-19 12:17:00,
2013-08-19 08:22:00,64.2,63.1,30.13,South,180,0.0,-999.0,96,-99.99,,,-99.99,MetarLogicWeatherSta,2013-08-19 12:22:00,
2013-08-19 08:27:00,64.6,63.4,30.12,South,180,0.0,-999.0,96,-99.99,,,-99.99,MetarLogicWeatherSta,2013-08-19 12:27:00,
2013-08-19 08:32:00,65.3,64.1,30.13,SSE,157,0.0,-999.0,95,-99.99,,,-99.99,MetarLogicWeatherSta,2013-08-19 12:32:00,
2013-08-19 08:37:00,66.0,64.7,30.12,South,180,0.0,-999.0,95,-99.99,,,-99.99,MetarLogicWeatherSta,2013-08-19 12:37:00,
2013-08-19 08:42:00,66.9,65.4,30.12,South,180,0.0,-999.0,94,-99.99,,,-99.99,MetarLogicWeatherSta,2013-08-19 12:42:00,
2013-08-19 08:47:00,67.4,65.6,30.12,SE,135,0.0,-999.0,93,-99.99,,,-99.99,MetarLogicWeatherSta,2013-08-19 12:47:00,
2013-08-19 08:52:00,68.1,65.9,30.12,South,180,0.0,-999.0,92,-99.99,,,-99.99,MetarLogicWeatherSta,2013-08-19 12:52:00,
2013-08-19 08:57:00,68.6,66.2,30.11,SSE,157,0.0,-999.0,91,-99.99,,,-99.99,MetarLogicWeatherSta,2013-08-19 12:57:00,
2013-08-19 09:02:00,69.4,66.3,30.11,SSE,157,0.0,-999.0,89,-99.99,,,-99.99,MetarLogicWeatherSta,2013-08-19 13:02:00,
2013-08-19 09:07:00,69.9,66.2,30.11,South,180,0.0,-999.0,88,-99.99,,,-99.99,MetarLogicWeatherSta,2013-08-19 13:07:00,
2013-08-19 09:12:00,70.6,66.0,30.11,SSE,157,0.0,-999.0,85,-99.99,,,-99.99,MetarLogicWeatherSta,2013-08-19 13:12:00,
2013-08-19 09:17:00,71.3,66.6,30.11,SW,225,0.0,-999.0,84,-99.99,,,-99.99,MetarLogicWeatherSta,2013-08-19 13:17:00,
2013-08-19 09:22:00,71.5,66.1,30.11,South,180,0.0,-999.0,82,-99.99,,,-99.99,MetarLogicWeatherSta,2013-08-19 13:22:00,
2013-08-19 09:27:00,71.9,66.2,30.11,SSE,157,0.0,-999.0,81,-99.99,,,-99.99,MetarLogicWeatherSta,2013-08-19 13:27:00,
2013-08-19 09:32:00,72.3,66.1,30.11,South,180,0.0,-999.0,80,-99.99,,,-99.99,MetarLogicWeatherSta,2013-08-19 13:32:00,
2013-08-19 09:37:00,72.2,65.4,30.11,East,90,3.0,-999.0,78,-99.99,,,-99.99,MetarLogicWeatherSta,2013-08-19 13:37:00,
2013-08-19 09:42:00,72.6,65.7,30.11,South,180,0.0,-999.0,78,-99.99,,,-99.99,MetarLogicWeatherSta,2013-08-19 13:42:00,
2013-08-19 09:47:00,72.9,65.7,30.11,South,180,1.0,-999.0,77,-99.99,,,-99.99,MetarLogicWeatherSta,2013-08-19 13:47:00,
2013-08-19 09:52:00,73.3,65.8,30.11,South,180,0.0,-999.0,77,-99.99,,,-99.99,MetarLogicWeatherSta,2013-08-19 13:52:00,
2013-08-19 09:58:00,73.6,65.8,30.11,South,180,0.0,-999.0,76,-99.99,,,-99.99,MetarLogicWeatherSta,2013-08-19 13:58:00,
2013-08-19 10:03:00,73.7,65.2,30.11,SSE,157,0.0,-999.0,74,-99.99,,,-99.99,MetarLogicWeatherSta,2013-08-19 14:03:00,
2013-08-19 10:08:00,73.9,65.1,30.10,South,180,0.0,-999.0,73,-99.99,,,-99.99,MetarLogicWeatherSta,2013-08-19 14:08:00,
2013-08-19 10:13:00,74.2,65.4,30.10,SSE,157,0.0,-999.0,73,-99.99,,,-99.99,MetarLogicWeatherSta,2013-08-19 14:13:00,
2013-08-19 10:18:00,74.4,64.7,30.10,SSE,157,0.0,-999.0,71,-99.99,,,-99.99,MetarLogicWeatherSta,2013-08-19 14:18:00,
2013-08-19 10:23:00,74.8,65.7,30.10,South,180,1.0,-999.0,73,-99.99,,,-99.99,MetarLogicWeatherSta,2013-08-19 14:23:00,
2013-08-19 10:28:00,74.8,64.8,30.10,South,180,0.0,-999.0,70,-99.99,,,-99.99,MetarLogicWeatherSta,2013-08-19 14:28:00,
2013-08-19 10:33:00,74.9,64.8,30.10,South,180,0.0,-999.0,70,-99.99,,,-99.99,MetarLogicWeatherSta,2013-08-19 14:33:00,
2013-08-19 10:38:00,75.0,64.8,30.10,SSE,157,0.0,-999.0,70,-99.99,,,-99.99,MetarLogicWeatherSta,2013-08-19 14:38:00,
2013-08-19 10:43:00,75.6,64.7,30.10,South,180,0.0,-999.0,68,-99.99,,,-99.99,MetarLogicWeatherSta,2013-08-19 14:43:00,
2013-08-19 10:48:00,75.5,64.1,30.10,South,180,0.0,-999.0,67,-99.99,,,-99.99,MetarLogicWeatherSta,2013-08-19 14:48:00,
2013-08-19 10:53:00,75.6,64.0,30.10,South,180,0.0,-999.0,66,-99.99,,,-99.99,MetarLogicWeatherSta,2013-08-19 14:53:00,
2013-08-19 10:58:00,75.6,63.9,30.10,South,180,1.0,-999.0,66,-99.99,,,-99.99,MetarLogicWeatherSta,2013-08-19 14:58:00,
2013-08-19 11:03:00,75.7,63.8,30.10,South,180,0.0,-999.0,66,-99.99,,,-99.99,MetarLogicWeatherSta,2013-08-19 15:03:00,
2013-08-19 11:08:00,76.0,64.4,30.09,SSE,157,0.0,-999.0,66,-99.99,,,-99.99,MetarLogicWeatherSta,2013-08-19 15:08:00,
2013-08-19 11:13:00,76.2,64.2,30.10,South,180,0.0,-999.0,66,-99.99,,,-99.99,MetarLogicWeatherSta,2013-08-19 15:13:00,
2013-08-19 11:18:00,76.4,63.8,30.10,SSE,157,0.0,-999.0,64,-99.99,,,-99.99,MetarLogicWeatherSta,2013-08-19 15:18:00,
2013-08-19 11:23:00,76.7,64.2,30.09,South,180,0.0,-999.0,64,-99.99,,,-99.99,MetarLogicWeatherSta,2013-08-19 15:23:00,
2013-08-19 11:28:00,76.7,63.9,30.09,South,180,1.0,-999.0,64,-99.99,,,-99.99,MetarLogicWeatherSta,2013-08-19 15:28:00,
2013-08-19 11:33:00,76.9,64.7,30.09,South,180,1.0,-999.0,65,-99.99,,,-99.99,MetarLogicWeatherSta,2013-08-19 15:33:00,
2013-08-19 11:38:00,77.0,64.2,30.09,South,180,1.0,-999.0,64,-99.99,,,-99.99,MetarLogicWeatherSta,2013-08-19 15:38:00,
2013-08-19 11:43:00,77.1,63.3,30.09,South,180,0.0,-999.0,61,-99.99,,,-99.99,MetarLogicWeatherSta,2013-08-19 15:43:00,
2013-08-19 11:48:00,77.4,64.2,30.09,South,180,0.0,-999.0,63,-99.99,,,-99.99,MetarLogicWeatherSta,2013-08-19 15:48:00,
2013-08-19 11:54:00,77.4,62.6,30.09,South,180,0.0,-999.0,59,-99.99,,,-99.99,MetarLogicWeatherSta,2013-08-19 15:54:00,
2013-08-19 11:59:00,77.6,62.1,30.09,SSW,202,1.0,-999.0,58,-99.99,,,-99.99,MetarLogicWeatherSta,2013-08-19 15:59:00,
2013-08-19 12:04:00,77.7,63.0,30.09,South,180,0.0,-999.0,60,-99.99,,,-99.99,MetarLogicWeatherSta,2013-08-19 16:04:00,
2013-08-19 12:08:00,77.7,62.0,30.09,SSE,157,0.0,-999.0,57,-99.99,,,-99.99,MetarLogicWeatherSta,2013-08-19 16:08:00,
2013-08-19 12:13:00,78.0,62.1,30.09,SE,135,0.0,-999.0,57,-99.99,,,-99.99,MetarLogicWeatherSta,2013-08-19 16:13:00,
2013-08-19 12:18:00,78.3,61.9,30.09,SE,135,0.0,-999.0,56,-99.99,,,-99.99,MetarLogicWeatherSta,2013-08-19 16:18:00,
2013-08-19 12:23:00,78.7,62.3,30.09,South,180,0.0,-999.0,56,-99.99,,,-99.99,MetarLogicWeatherSta,2013-08-19 16:23:00,
2013-08-19 12:28:00,78.5,60.3,30.09,South,180,0.0,-999.0,53,-99.99,,,-99.99,MetarLogicWeatherSta,2013-08-19 16:28:00,
2013-08-19 12:33:00,78.7,59.9,30.09,South,180,0.0,-999.0,52,-99.99,,,-99.99,MetarLogicWeatherSta,2013-08-19 16:33:00,
2013-08-19 12:38:00,78.6,60.5,30.09,SSE,157,0.0,-999.0,53,-99.99,,,-99.99,MetarLogicWeatherSta,2013-08-19 16:38:00,
2013-08-19 12:44:00,78.7,61.6,30.09,South,180,0.0,-999.0,55,-99.99,,,-99.99,MetarLogicWeatherSta,2013-08-19 16:44:00,
2013-08-19 12:49:00,79.4,61.0,30.09,South,180,0.0,-999.0,52,-99.99,,,-99.99,MetarLogicWeatherSta,2013-08-19 16:49:00,
2013-08-19 12:54:00,79.1,60.2,30.08,NE,45,1.0,-999.0,51,-99.99,,,-99.99,MetarLogicWeatherSta,2013-08-19 16:54:00,
2013-08-19 12:59:00,79.0,60.5,30.09,South,180,0.0,-999.0,52,-99.99,,,-99.99,MetarLogicWeatherSta,2013-08-19 16:59:00,
2013-08-19 13:04:00,79.4,60.5,30.08,SE,135,1.0,-999.0,51,-99.99,,,-99.99,MetarLogicWeatherSta,2013-08-19 17:04:00,
2013-08-19 13:09:00,79.7,58.2,30.08,SE,135,1.0,-999.0,47,-99.99,,,-99.99,MetarLogicWeatherSta,2013-08-19 17:09:00,
2013-08-19 13:14:00,79.8,61.7,30.08,South,180,0.0,-999.0,53,-99.99,,,-99.99,MetarLogicWeatherSta,2013-08-19 17:14:00,
2013-08-19 13:19:00,79.9,61.0,30.08,SSE,157,0.0,-999.0,51,-99.99,,,-99.99,MetarLogicWeatherSta,2013-08-19 17:19:00,
2013-08-19 13:24:00,79.9,60.6,30.08,South,180,3.0,-999.0,51,-99.99,,,-99.99,MetarLogicWeatherSta,2013-08-19 17:24:00,
2013-08-19 13:29:00,79.6,62.1,30.08,South,180,1.0,-999.0,54,-99.99,,,-99.99,MetarLogicWeatherSta,2013-08-19 17:29:00,
2013-08-19 13:34:00,79.8,60.9,30.07,South,180,0.0,-999.0,51,-99.99,,,-99.99,MetarLogicWeatherSta,2013-08-19 17:34:00,
2013-08-19 13:39:00,79.8,60.9,30.07,South,180,0.0,-999.0,51,-99.99,,,-99.99,MetarLogicWeatherSta,2013-08-19 17:39:00,
2013-08-19 13:44:00,79.5,61.2,30.07,SSE,157,0.0,-999.0,53,-99.99,,,-99.99,MetarLogicWeatherSta,2013-08-19 17:44:00,
2013-08-19 13:49:00,79.1,61.2,30.07,South,180,0.0,-999.0,53,-99.99,,,-99.99,MetarLogicWeatherSta,2013-08-19 17:49:00,
2013-08-19 13:54:00,79.3,62.0,30.07,South,180,0.0,-999.0,54,-99.99,,,-99.99,MetarLogicWeatherSta,2013-08-19 17:54:00,
2013-08-19 13:59:00,80.1,62.9,30.07,SSE,157,0.0,-999.0,55,-99.99,,,-99.99,MetarLogicWeatherSta,2013-08-19 17:59:00,
2013-08-19 14:04:00,80.3,62.2,30.07,SW,225,3.0,-999.0,53,-99.99,,,-99.99,MetarLogicWeatherSta,2013-08-19 18:04:00,
2013-08-19 14:09:00,80.5,62.2,30.07,South,180,0.0,-999.0,53,-99.99,,,-99.99,MetarLogicWeatherSta,2013-08-19 18:09:00,
2013-08-19 14:15:00,80.8,61.0,30.06,SE,135,0.0,-999.0,50,-99.99,,,-99.99,MetarLogicWeatherSta,2013-08-19 18:15:00,
2013-08-19 14:20:00,81.2,62.8,30.06,South,180,1.0,-999.0,53,-99.99,,,-99.99,MetarLogicWeatherSta,2013-08-19 18:20:00,
2013-08-19 14:25:00,81.4,61.6,30.06,SSE,157,0.0,-999.0,50,-99.99,,,-99.99,MetarLogicWeatherSta,2013-08-19 18:25:00,
2013-08-19 14:30:00,81.2,62.6,30.06,South,180,0.0,-999.0,52,-99.99,,,-99.99,MetarLogicWeatherSta,2013-08-19 18:30:00,
2013-08-19 14:35:00,80.0,62.3,30.06,South,180,0.0,-999.0,54,-99.99,,,-99.99,MetarLogicWeatherSta,2013-08-19 18:35:00,
2013-08-19 14:40:00,79.8,61.2,30.06,South,180,0.0,-999.0,52,-99.99,,,-99.99,MetarLogicWeatherSta,2013-08-19 18:40:00,
2013-08-19 14:45:00,78.9,61.8,30.06,South,180,0.0,-999.0,55,-99.99,,,-99.99,MetarLogicWeatherSta,2013-08-19 18:45:00,
2013-08-19 14:50:00,78.7,61.4,30.06,SSE,157,1.0,-999.0,54,-99.99,,,-99.99,MetarLogicWeatherSta,2013-08-19 18:50:00,
2013-08-19 14:55:00,78.8,60.7,30.06,SW,225,3.0,-999.0,53,-99.99,,,-99.99,MetarLogicWeatherSta,2013-08-19 18:55:00,
2013-08-19 15:00:00,77.7,60.4,30.06,South,180,0.0,-999.0,54,-99.99,,,-99.99,MetarLogicWeatherSta,2013-08-19 19:00:00,
2013-08-19 15:05:00,77.2,61.8,30.06,SSE,157,0.0,-999.0,58,-99.99,,,-99.99,MetarLogicWeatherSta,2013-08-19 19:05:00,
2013-08-19 15:10:00,77.6,62.3,30.06,South,180,0.0,-999.0,58,-99.99,,,-99.99,MetarLogicWeatherSta,2013-08-19 19:10:00,
2013-08-19 15:15:00,78.0,62.6,30.06,SSE,157,0.0,-999.0,58,-99.99,,,-99.99,MetarLogicWeatherSta,2013-08-19 19:15:00,
2013-08-19 15:20:00,78.8,62.9,30.05,South,180,0.0,-999.0,57,-99.99,,,-99.99,MetarLogicWeatherSta,2013-08-19 19:20:00,
2013-08-19 15:25:00,79.8,61.2,30.06,SSE,157,0.0,-999.0,52,-99.99,,,-99.99,MetarLogicWeatherSta,2013-08-19 19:25:00,
2013-08-19 15:30:00,80.0,62.6,30.06,SSE,157,0.0,-999.0,54,-99.99,,,-99.99,MetarLogicWeatherSta,2013-08-19 19:30:00,
2013-08-19 15:35:00,79.4,61.9,30.06,SSE,157,0.0,-999.0,54,-99.99,,,-99.99,MetarLogicWeatherSta,2013-08-19 19:35:00,
2013-08-19 15:40:00,78.8,62.2,30.06,SSE,157,0.0,-999.0,56,-99.99,,,-99.99,MetarLogicWeatherSta,2013-08-19 19:40:00,
2013-08-19 15:45:00,78.2,62.0,30.06,SSE,157,0.0,-999.0,56,-99.99,,,-99.99,MetarLogicWeatherSta,2013-08-19 19:45:00,
2013-08-19 15:50:00,78.4,62.3,30.06,SSE,157,0.0,-999.0,57,-99.99,,,-99.99,MetarLogicWeatherSta,2013-08-19 19:50:00,
2013-08-19 15:55:00,78.2,62.4,30.05,South,180,0.0,-999.0,57,-99.99,,,-99.99,MetarLogicWeatherSta,2013-08-19 19:55:00,
2013-08-19 16:00:00,78.1,61.7,30.05,South,180,0.0,-999.0,56,-99.99,,,-99.99,MetarLogicWeatherSta,2013-08-19 20:00:00,
2013-08-19 16:05:00,78.1,62.2,30.05,South,180,0.0,-999.0,57,-99.99,,,-99.99,MetarLogicWeatherSta,2013-08-19 20:05:00,
2013-08-19 16:10:00,77.4,61.9,30.05,South,180,0.0,-999.0,58,-99.99,,,-99.99,MetarLogicWeatherSta,2013-08-19 20:10:00,
2013-08-19 16:15:00,77.3,62.4,30.06,South,180,0.0,-999.0,59,-99.99,,,-99.99,MetarLogicWeatherSta,2013-08-19 20:15:00,
2013-08-19 16:20:00,76.7,62.0,30.05,South,180,0.0,-999.0,59,-99.99,,,-99.99,MetarLogicWeatherSta,2013-08-19 20:20:00,
2013-08-19 16:25:00,76.4,61.9,30.05,SSE,157,0.0,-999.0,60,-99.99,,,-99.99,MetarLogicWeatherSta,2013-08-19 20:25:00,
2013-08-19 16:30:00,76.6,62.8,30.05,South,180,0.0,-999.0,61,-99.99,,,-99.99,MetarLogicWeatherSta,2013-08-19 20:30:00,
2013-08-19 16:35:00,76.3,63.3,30.05,SSW,202,1.0,-999.0,63,-99.99,,,-99.99,MetarLogicWeatherSta,2013-08-19 20:35:00,
2013-08-19 16:40:00,76.1,63.0,30.05,South,180,1.0,-999.0,63,-99.99,,,-99.99,MetarLogicWeatherSta,2013-08-19 20:40:00,
2013-08-19 16:46:00,76.3,63.0,30.05,SSE,157,0.0,-999.0,62,-99.99,,,-99.99,MetarLogicWeatherSta,2013-08-19 20:46:00,
2013-08-19 16:51:00,76.3,63.8,30.05,South,180,0.0,-999.0,64,-99.99,,,-99.99,MetarLogicWeatherSta,2013-08-19 20:51:00,
2013-08-19 16:56:00,76.0,64.0,30.05,South,180,0.0,-999.0,65,-99.99,,,-99.99,MetarLogicWeatherSta,2013-08-19 20:56:00,
2013-08-19 17:01:00,76.2,64.0,30.05,SSE,157,0.0,-999.0,65,-99.99,,,-99.99,MetarLogicWeatherSta,2013-08-19 21:01:00,
2013-08-19 17:06:00,75.9,63.3,30.05,SSE,157,0.0,-999.0,64,-99.99,,,-99.99,MetarLogicWeatherSta,2013-08-19 21:06:00,
2013-08-19 17:11:00,75.8,63.3,30.05,South,180,0.0,-999.0,64,-99.99,,,-99.99,MetarLogicWeatherSta,2013-08-19 21:11:00,
2013-08-19 17:16:00,75.7,63.0,30.05,SSE,157,0.0,-999.0,64,-99.99,,,-99.99,MetarLogicWeatherSta,2013-08-19 21:16:00,
2013-08-19 17:21:00,75.4,62.7,30.05,South,180,0.0,-999.0,64,-99.99,,,-99.99,MetarLogicWeatherSta,2013-08-19 21:21:00,
2013-08-19 17:26:00,75.4,62.9,30.04,South,180,0.0,-999.0,64,-99.99,,,-99.99,MetarLogicWeatherSta,2013-08-19 21:26:00,
2013-08-19 17:31:00,75.3,62.8,30.04,South,180,0.0,-999.0,64,-99.99,,,-99.99,MetarLogicWeatherSta,2013-08-19 21:31:00,
2013-08-19 17:36:00,75.1,62.7,30.05,South,180,0.0,-999.0,64,-99.99,,,-99.99,MetarLogicWeatherSta,2013-08-19 21:36:00,
2013-08-19 17:41:00,74.9,62.2,30.05,SSW,202,1.0,-999.0,64,-99.99,,,-99.99,MetarLogicWeatherSta,2013-08-19 21:41:00,
2013-08-19 17:46:00,74.6,62.1,30.05,SSW,202,0.0,-999.0,64,-99.99,,,-99.99,MetarLogicWeatherSta,2013-08-19 21:46:00,
2013-08-19 17:51:00,74.7,62.7,30.05,SSE,157,0.0,-999.0,65,-99.99,,,-99.99,MetarLogicWeatherSta,2013-08-19 21:51:00,
2013-08-19 17:56:00,74.4,62.7,30.05,South,180,0.0,-999.0,66,-99.99,,,-99.99,MetarLogicWeatherSta,2013-08-19 21:56:00,
2013-08-19 18:02:00,74.4,62.6,30.05,South,180,0.0,-999.0,66,-99.99,,,-99.99,MetarLogicWeatherSta,2013-08-19 22:02:00,
2013-08-19 18:07:00,74.2,62.7,30.05,SSE,157,0.0,-999.0,67,-99.99,,,-99.99,MetarLogicWeatherSta,2013-08-19 22:07:00,
2013-08-19 18:12:00,74.0,62.9,30.05,SSW,202,0.0,-999.0,67,-99.99,,,-99.99,MetarLogicWeatherSta,2013-08-19 22:12:00,
2013-08-19 18:17:00,73.8,63.0,30.04,South,180,0.0,-999.0,68,-99.99,,,-99.99,MetarLogicWeatherSta,2013-08-19 22:17:00,
2013-08-19 18:22:00,73.5,62.4,30.04,SSE,157,0.0,-999.0,67,-99.99,,,-99.99,MetarLogicWeatherSta,2013-08-19 22:22:00,
2013-08-19 18:27:00,73.3,62.3,30.05,South,180,0.0,-999.0,68,-99.99,,,-99.99,MetarLogicWeatherSta,2013-08-19 22:27:00,
2013-08-19 18:32:00,73.4,62.3,30.04,South,180,0.0,-999.0,67,-99.99,,,-99.99,MetarLogicWeatherSta,2013-08-19 22:32:00,
2013-08-19 18:37:00,73.1,62.3,30.05,SSE,157,0.0,-999.0,68,-99.99,,,-99.99,MetarLogicWeatherSta,2013-08-19 22:37:00,
2013-08-19 18:42:00,73.0,62.4,30.05,South,180,0.0,-999.0,68,-99.99,,,-99.99,MetarLogicWeatherSta,2013-08-19 22:42:00,
2013-08-19 18:47:00,73.0,62.7,30.05,SSE,157,0.0,-999.0,69,-99.99,,,-99.99,MetarLogicWeatherSta,2013-08-19 22:47:00,
2013-08-19 18:52:00,72.8,62.6,30.05,SSE,157,0.0,-999.0,69,-99.99,,,-99.99,MetarLogicWeatherSta,2013-08-19 22:52:00,
2013-08-19 18:57:00,72.5,62.8,30.05,SSE,157,0.0,-999.0,71,-99.99,,,-99.99,MetarLogicWeatherSta,2013-08-19 22:57:00,
2013-08-19 19:02:00,72.2,62.5,30.05,SSE,157,0.0,-999.0,71,-99.99,,,-99.99,MetarLogicWeatherSta,2013-08-19 23:02:00,
2013-08-19 19:07:00,72.1,62.8,30.05,SSE,157,0.0,-999.0,72,-99.99,,,-99.99,MetarLogicWeatherSta,2013-08-19 23:07:00,
2013-08-19 19:12:00,71.8,62.7,30.05,SSE,157,0.0,-999.0,72,-99.99,,,-99.99,MetarLogicWeatherSta,2013-08-19 23:12:00,
2013-08-19 19:17:00,71.7,62.9,30.05,SSE,157,0.0,-999.0,73,-99.99,,,-99.99,MetarLogicWeatherSta,2013-08-19 23:17:00,
2013-08-19 19:22:00,71.2,62.7,30.05,SSE,157,0.0,-999.0,74,-99.99,,,-99.99,MetarLogicWeatherSta,2013-08-19 23:22:00,
2013-08-19 19:27:00,71.0,62.6,30.05,SSE,157,0.0,-999.0,74,-99.99,,,-99.99,MetarLogicWeatherSta,2013-08-19 23:27:00,
2013-08-19 19:32:00,70.6,62.2,30.05,SSE,157,0.0,-999.0,74,-99.99,,,-99.99,MetarLogicWeatherSta,2013-08-19 23:32:00,
2013-08-19 19:37:00,69.9,61.7,30.05,South,180,0.0,-999.0,75,-99.99,,,-99.99,MetarLogicWeatherSta,2013-08-19 23:37:00,
2013-08-19 19:42:00,69.8,61.8,30.05,SSE,157,0.0,-999.0,75,-99.99,,,-99.99,MetarLogicWeatherSta,2013-08-19 23:42:00,
2013-08-19 19:47:00,69.3,61.6,30.05,SSE,157,0.0,-999.0,76,-99.99,,,-99.99,MetarLogicWeatherSta,2013-08-19 23:47:00,
2013-08-19 19:52:00,68.7,61.1,30.05,SSE,157,0.0,-999.0,76,-99.99,,,-99.99,MetarLogicWeatherSta,2013-08-19 23:52:00,
2013-08-19 19:57:00,68.3,61.0,30.05,SSE,157,0.0,-999.0,77,-99.99,,,-99.99,MetarLogicWeatherSta,2013-08-19 23:57:00,
2013-08-19 20:02:00,67.8,60.8,30.05,SSE,157,0.0,-999.0,78,-99.99,,,-99.99,MetarLogicWeatherSta,2013-08-20 00:02:00,
2013-08-19 20:07:00,67.7,61.0,30.05,SSE,157,0.0,-999.0,79,-99.99,,,-99.99,MetarLogicWeatherSta,2013-08-20 00:07:00,
2013-08-19 20:12:00,67.2,60.8,30.05,SSE,157,0.0,-999.0,79,-99.99,,,-99.99,MetarLogicWeatherSta,2013-08-20 00:12:00,
2013-08-19 20:17:00,66.8,60.5,30.05,SSE,157,0.0,-999.0,79,-99.99,,,-99.99,MetarLogicWeatherSta,2013-08-20 00:17:00,
2013-08-19 20:22:00,66.5,60.3,30.05,SSE,157,0.0,-999.0,80,-99.99,,,-99.99,MetarLogicWeatherSta,2013-08-20 00:22:00,
2013-08-19 20:27:00,66.1,60.3,30.05,SSE,157,0.0,-999.0,81,-99.99,,,-99.99,MetarLogicWeatherSta,2013-08-20 00:27:00,
2013-08-19 20:32:00,65.6,59.8,30.05,SSE,157,0.0,-999.0,81,-99.99,,,-99.99,MetarLogicWeatherSta,2013-08-20 00:32:00,
2013-08-19 20:37:00,65.0,59.2,30.05,SSE,157,0.0,-999.0,81,-99.99,,,-99.99,MetarLogicWeatherSta,2013-08-20 00:37:00,
2013-08-19 20:42:00,64.9,59.3,30.05,SSE,157,0.0,-999.0,81,-99.99,,,-99.99,MetarLogicWeatherSta,2013-08-20 00:42:00,
2013-08-19 20:47:00,64.9,59.7,30.05,SSE,157,0.0,-999.0,83,-99.99,,,-99.99,MetarLogicWeatherSta,2013-08-20 00:47:00,
2013-08-19 20:52:00,64.5,59.1,30.05,SSE,157,0.0,-999.0,82,-99.99,,,-99.99,MetarLogicWeatherSta,2013-08-20 00:52:00,
2013-08-19 20:57:00,64.2,59.1,30.05,SSE,157,0.0,-999.0,83,-99.99,,,-99.99,MetarLogicWeatherSta,2013-08-20 00:57:00,
2013-08-19 21:02:00,63.8,59.0,30.05,SSE,157,0.0,-999.0,83,-99.99,,,-99.99,MetarLogicWeatherSta,2013-08-20 01:02:00,
2013-08-19 21:07:00,63.7,58.9,30.05,SSE,157,0.0,-999.0,84,-99.99,,,-99.99,MetarLogicWeatherSta,2013-08-20 01:07:00,
2013-08-19 21:12:00,63.4,58.7,30.05,SSE,157,0.0,-999.0,84,-99.99,,,-99.99,MetarLogicWeatherSta,2013-08-20 01:12:00,
2013-08-19 21:17:00,63.2,58.7,30.05,SSE,157,0.0,-999.0,85,-99.99,,,-99.99,MetarLogicWeatherSta,2013-08-20 01:17:00,
2013-08-19 21:22:00,63.1,58.8,30.05,SSE,157,0.0,-999.0,85,-99.99,,,-99.99,MetarLogicWeatherSta,2013-08-20 01:22:00,
2013-08-19 21:27:00,62.8,58.6,30.05,SSE,157,0.0,-999.0,85,-99.99,,,-99.99,MetarLogicWeatherSta,2013-08-20 01:27:00,
2013-08-19 21:32:00,62.7,58.6,30.05,SSE,157,0.0,-999.0,86,-99.99,,,-99.99,MetarLogicWeatherSta,2013-08-20 01:32:00,
2013-08-19 21:37:00,62.4,58.3,30.06,SSE,157,0.0,-999.0,86,-99.99,,,-99.99,MetarLogicWeatherSta,2013-08-20 01:37:00,
2013-08-19 21:42:00,62.2,58.1,30.06,SSE,157,0.0,-999.0,86,-99.99,,,-99.99,MetarLogicWeatherSta,2013-08-20 01:42:00,
2013-08-19 21:47:00,62.1,58.2,30.06,SSE,157,0.0,-999.0,86,-99.99,,,-99.99,MetarLogicWeatherSta,2013-08-20 01:47:00,
2013-08-19 21:52:00,62.2,58.3,30.06,SSE,157,0.0,-999.0,86,-99.99,,,-99.99,MetarLogicWeatherSta,2013-08-20 01:52:00,
2013-08-19 21:57:00,61.7,58.1,30.06,South,180,0.0,-999.0,87,-99.99,,,-99.99,MetarLogicWeatherSta,2013-08-20 01:57:00,
2013-08-19 22:02:00,61.6,58.1,30.07,South,180,0.0,-999.0,88,-99.99,,,-99.99,MetarLogicWeatherSta,2013-08-20 02:02:00,
2013-08-19 22:07:00,61.3,57.8,30.07,SSE,157,0.0,-999.0,88,-99.99,,,-99.99,MetarLogicWeatherSta,2013-08-20 02:07:00,
2013-08-19 22:12:00,61.5,57.9,30.06,SSE,157,0.0,-999.0,87,-99.99,,,-99.99,MetarLogicWeatherSta,2013-08-20 02:12:00,
2013-08-19 22:17:00,61.0,57.8,30.07,SSE,157,0.0,-999.0,88,-99.99,,,-99.99,MetarLogicWeatherSta,2013-08-20 02:17:00,
2013-08-19 22:22:00,61.0,57.8,30.07,SSE,157,0.0,-999.0,88,-99.99,,,-99.99,MetarLogicWeatherSta,2013-08-20 02:22:00,
2013-08-19 22:27:00,60.9,57.8,30.07,SSE,157,0.0,-999.0,89,-99.99,,,-99.99,MetarLogicWeatherSta,2013-08-20 02:27:00,
2013-08-19 22:32:00,60.6,57.4,30.07,SSE,157,0.0,-999.0,89,-99.99,,,-99.99,MetarLogicWeatherSta,2013-08-20 02:32:00,
2013-08-19 22:37:00,60.4,57.3,30.07,SSE,157,0.0,-999.0,89,-99.99,,,-99.99,MetarLogicWeatherSta,2013-08-20 02:37:00,
2013-08-19 22:42:00,60.3,57.4,30.07,SSE,157,0.0,-999.0,90,-99.99,,,-99.99,MetarLogicWeatherSta,2013-08-20 02:42:00,
2013-08-19 22:47:00,60.2,57.4,30.07,SSE,157,0.0,-999.0,90,-99.99,,,-99.99,MetarLogicWeatherSta,2013-08-20 02:47:00,
2013-08-19 22:52:00,60.1,57.4,30.07,SSE,157,0.0,-999.0,90,-99.99,,,-99.99,MetarLogicWeatherSta,2013-08-20 02:52:00,
2013-08-19 22:57:00,59.9,57.0,30.07,SSE,157,0.0,-999.0,90,-99.99,,,-99.99,MetarLogicWeatherSta,2013-08-20 02:57:00,
2013-08-19 23:02:00,60.0,57.0,30.07,SSE,157,0.0,-999.0,89,-99.99,,,-99.99,MetarLogicWeatherSta,2013-08-20 03:02:00,
2013-08-19 23:07:00,59.7,57.2,30.07,SSE,157,0.0,-999.0,91,-99.99,,,-99.99,MetarLogicWeatherSta,2013-08-20 03:07:00,
2013-08-19 23:12:00,59.5,56.8,30.07,SSE,157,0.0,-999.0,90,-99.99,,,-99.99,MetarLogicWeatherSta,2013-08-20 03:12:00,
2013-08-19 23:17:00,59.4,56.8,30.07,SSE,157,0.0,-999.0,90,-99.99,,,-99.99,MetarLogicWeatherSta,2013-08-20 03:17:00,
2013-08-19 23:22:00,59.1,56.8,30.07,SSE,157,0.0,-999.0,91,-99.99,,,-99.99,MetarLogicWeatherSta,2013-08-20 03:22:00,
2013-08-19 23:27:00,59.0,56.3,30.07,SSE,157,0.0,-999.0,90,-99.99,,,-99.99,MetarLogicWeatherSta,2013-08-20 03:27:00,
2013-08-19 23:32:00,59.1,56.5,30.07,SSE,157,0.0,-999.0,90,-99.99,,,-99.99,MetarLogicWeatherSta,2013-08-20 03:32:00,
2013-08-19 23:37:00,58.6,56.1,30.07,SE,135,0.0,-999.0,91,-99.99,,,-99.99,MetarLogicWeatherSta,2013-08-20 03:37:00,
2013-08-19 23:42:00,58.7,56.3,30.07,SSE,157,0.0,-999.0,91,-99.99,,,-99.99,MetarLogicWeatherSta,2013-08-20 03:42:00,
2013-08-19 23:47:00,58.6,56.4,30.07,SSE,157,0.0,-999.0,92,-99.99,,,-99.99,MetarLogicWeatherSta,2013-08-20 03:47:00,
2013-08-19 23:52:00,58.5,56.0,30.07,SE,135,0.0,-999.0,91,-99.99,,,-99.99,MetarLogicWeatherSta,2013-08-20 03:52:00,
2013-08-19 23:57:00,58.3,56.2,30.07,SSE,157,0.0,-999.0,92,-99.99,,,-99.99,MetarLogicWeatherSta,2013-08-20 03:57:00,